User: anonymous   Login
Location: *
(45.0500°N, 12.0500°E)
Time: 18:04:09
(UTC+00:00)
Language:

STARLINK-1230 - Orbit

View from above orbital plane
View from above orbital plane
View from above satellite
View from above satellite

Ground track
Ground track

The orbit data is extracted from the following two-line orbital elements,

1 45189U 20012M   20185.50001157  .00016963  00000-0  11803-2 0  9997
2 45189  52.9985   2.5072 0001581 102.4028 289.8859 15.05588747 21131
Epoch (UTC): 03 July 2020 12:00:01
Eccentricity: 0.0001581
inclination: 52.9985°
perigee height: 548 km
apogee height: 551 km
right ascension of ascending node: 2.5072°
argument of perigee: 102.4028°
revolutions per day: 15.05588747
mean anomaly at epoch: 289.8859°
orbit number at epoch: 2113

The dashed part of the orbit path shows where the satellite is in the earth's shadow,  

DLR